Weather observations for the past three days for
Mason City Municipal Airport
Imperial (Metric)
Date Time (cdt) Wind (mph) Vis. (mi.) Weather Sky Cond. Temperature (ºF) Relative Humidity Wind Chill (°F) Heat Index (°F) Pressure Precipitation (in)
Air Dwpt 6 hour altimeter (in) sea level (mb) 1 hr 3 hr 6 hr
Max. Min.
19 10:53 N 14 10.00 Mostly Cloudy BKN017 BKN110 64 57 78% 30.25 1023.4
19 09:53 N 14 10.00 Overcast BKN017 OVC110 63 57.9 84% 30.23 1022.7
19 08:53 NW 14 10.00 Mostly Cloudy FEW012 BKN120 62.1 57 84% 30.2 1021.7
19 07:53 N 10 10.00 Overcast OVC055 62.1 57.9 86% 30.17 1020.5
19 06:53 NW 15 10.00 Overcast OVC039 62.1 60.1 68 62.1 93% 30.15 1019.8 0.54
19 05:53 N 6 10.00 Mostly Cloudy SCT009 BKN034 63 62.1 97% 30.12 1018.8
19 04:53 NW 9 10.00 Overcast OVC008 63 62.1 97% 30.1 1017.9 0.05
19 03:53 NW 5 5.00 Light Rain Fog/Mist SCT013 BKN022 OVC033 64 63 96% 30.06 1016.6 0.29 0.49
19 02:53 W 9 5.00 Rain Fog/Mist FEW006 BKN095 OVC120 66.9 66 97% 30.04 1015.8 0.16
19 01:53 SW 7 5.00 Thunderstorm in Vicinity Rain Fog/Mist BKN011 OVC038 66.9 66 97% 30.02 1015.3 0.04
19 00:53 SW 10 G 21 10.00 Overcast BKN015 BKN028 OVC060 66.9 66 84 66.9 97% 30.01 1015.1 0.46
18 23:53 SW 14 G 22 10.00 Fair CLR 66.9 66 97% 29.99 1014.4 0.03
18 22:53 W 9 10.00 Light Rain FEW100 SCT120 68 66 93% 29.91 1011.6 0.09
18 21:53 SW 26 G 39 4.00 Thunderstorm in Vicinity Rain Fog/Mist and Windy FEW013 BKN055 OVC085 68 66.9 96% 29.93 1012.3 0.23 0.34
18 20:53 SW 20 G 38 2.50 Thunderstorm in Vicinity Heavy Rain Fog/Mist FEW018 BKN043 OVC050 70 66.9 90% 29.87 1010.1 0.11
18 19:53 S 15 G 26 10.00 Overcast OVC055 81 71.1 72% 85 29.8 1007.7
18 18:53 S 21 G 35 10.00 Mostly Cloudy and Breezy BKN070 BKN100 84 72 84.9 80.1 67% 90 29.79 1007.1
18 17:53 S 21 G 41 10.00 Mostly Cloudy and Breezy BKN075 84 72 67% 90 29.78 1006.8
18 16:53 S 20 G 33 10.00 Overcast BKN040 OVC049 84 72 67% 90 29.77 1006.6
18 15:53 S 22 G 44 10.00 Mostly Cloudy and Breezy BKN036 84.9 73 68% 92 29.76 1006.1
18 14:53 S 30 G 41 10.00 Mostly Cloudy and Windy BKN034 BKN041 84.9 73 68% 92 29.77 1006.4
18 13:53 S 28 G 40 10.00 Fair and Windy CLR 84 73 70% 90 29.77 1006.6
18 12:53 S 20 G 37 10.00 Mostly Cloudy FEW030 SCT035 BKN043 80.1 71.1 82 75.9 74% 84 29.78 1007.0
18 11:53 S 24 G 38 10.00 Overcast and Breezy BKN033 OVC041 80.1 70 71% 83 29.78 1006.9
18 09:53 S 24 G 41 10.00 A Few Clouds and Breezy FEW025 81 72 74% 85 29.74 1005.6
18 08:53 S 28 G 41 10.00 Overcast and Windy BKN025 OVC033 78.1 71.1 79% 80 29.76 1006.1
18 07:53 S 22 G 36 10.00 Overcast and Breezy FEW022 OVC031 77 71.1 82% 79 29.75 1005.9
18 06:53 S 23 G 35 10.00 Mostly Cloudy and Breezy BKN033 75.9 70 75.9 73 82% 77 29.75 1005.8
18 05:53 S 20 G 28 10.00 Fair CLR 75 70 84% 75 29.74 1005.8
18 04:53 S 16 G 31 10.00 Fair CLR 75.9 70 82% 77 29.73 1005.1
18 03:53 S 21 G 30 10.00 Fair and Breezy CLR 75.9 69.1 79% 77 29.71 1004.5
18 02:53 S 16 G 25 10.00 Fair CLR 75 68 79% 76 29.72 1005.0
18 01:53 S 12 10.00 Fair CLR 73 66.9 81% 29.75 1006.2
18 00:53 S 10 10.00 Fair CLR 73.9 66.9 82 73.9 79% 29.77 1006.8
17 23:53 SE 12 10.00 Fair CLR 75.9 66.9 74% 77 29.79 1007.4
17 22:53 SE 8 10.00 Fair CLR 75.9 68 77% 77 29.79 1007.5
17 21:53 SE 9 10.00 Fair CLR 78.1 66.9 69% 80 29.77 1007.0
17 20:53 SE 10 10.00 Fair CLR 80.1 68 67% 83 29.74 1006.0
17 19:53 S 15 10.00 Fair CLR 82 72 72% 87 29.73 1005.5
17 18:53 E 13 10.00 Thunderstorm in Vicinity FEW034 80.1 75 84 77 85% 85 29.76 1006.4 0.01 0.08
17 17:53 N 8 2.50 Thunderstorm Rain FEW060 SCT070 OVC090 79 73.9 85% 83 29.8 1007.7 0.07
17 16:53 SE 8 10.00 Partly Cloudy SCT080 SCT100 82.9 71.1 67% 88 29.81 1007.7
17 15:53 S 7 10.00 Mostly Cloudy FEW030 BKN075 81 70 69% 84 29.81 1007.8
17 14:53 S 10 10.00 Fair CLR 80.1 70 71% 83 29.82 1008.2
17 13:53 E 12 G 22 10.00 Fair CLR 78.1 68 71% 80 29.83 1008.9
17 12:53 E 18 10.00 Partly Cloudy FEW030 FEW035 SCT090 75.9 66 77 63 72% 77 29.86 1009.9 0.01
17 11:53 E 18 G 29 10.00 Fair CLR 75 64.9 71% 77 29.86 1009.9
17 10:53 E 17 G 24 10.00 Overcast SCT035 OVC042 66.9 64 91% 29.88 1010.4 0.01
17 09:53 NE 13 10.00 Overcast BKN035 OVC043 64.9 63 93% 29.89 1011.0
17 08:53 NW 8 10.00 Overcast FEW015 FEW022 OVC031 64 62.1 93% 29.92 1011.8
17 07:53 NE 13 G 23 10.00 Overcast OVC028 64.9 60.1 84% 29.86 1009.8
17 06:53 N 18 10.00 Overcast OVC028 64 60.1 77 64 87% 29.84 1009.0
17 05:53 NW 21 G 30 10.00 Overcast and Breezy BKN025 BKN044 OVC070 69.1 61 76% 29.82 1008.4
17 04:53 S 10 10.00 Partly Cloudy FEW065 SCT085 75.9 70 82% 77 29.77 1006.3
17 03:53 S 9 10.00 Partly Cloudy FEW050 SCT075 75 71.1 88% 75 29.76 1006.0
17 02:53 S 10 10.00 Overcast SCT042 OVC065 75 70 84% 75 29.76 1006.0
17 01:53 S 9 10.00 Overcast OVC060 75 71.1 88% 75 29.77 1006.6
17 00:53 S 6 10.00 Overcast OVC060 75 71.1 86 75 88% 75 29.77 1006.6
16 23:53 S 8 10.00 Fair CLR 75.9 70 82% 77 29.79 1007.3
16 22:53 S 7 10.00 Fair CLR 78.1 71.1 79% 80 29.79 1007.2
16 21:53 S 10 10.00 Partly Cloudy SCT040 SCT048 80.1 71.1 74% 84 29.77 1006.6
16 20:53 S 9 10.00 Overcast BKN045 OVC060 82 72 72% 87 29.75 1006.0
16 19:53 S 12 10.00 Mostly Cloudy BKN048 84 72 67% 90 29.73 1005.4
16 18:53 SW 15 G 26 10.00 A Few Clouds FEW044 86 71.1 88 84 61% 92 29.71 1004.6
16 17:53 S 18 G 30 10.00 Fair CLR 88 72 59% 95 29.69 1003.9
16 16:53 S 21 G 30 10.00 Fair and Breezy CLR 88 71.1 57% 94 29.69 1003.9
16 15:53 SW 15 G 30 10.00 A Few Clouds FEW042 88 71.1 57% 94 29.7 1004.2
16 14:53 SW 18 G 32 10.00 Mostly Cloudy BKN043 88 71.1 57% 94 29.71 1004.4
16 13:53 SW 22 G 32 10.00 Partly Cloudy and Breezy SCT038 86 71.1 61% 92 29.71 1004.6
16 12:53 S 21 G 31 10.00 Fair and Breezy CLR 84 69.1 84.9 68 61% 88 29.72 1005.0
16 11:53 S 20 G 32 10.00 Fair CLR 82.9 69.1 63% 87 29.73 1005.2
Date Time (cdt) Wind (mph) Vis. (mi.) Weather Sky Cond. Air Dwpt Max. Min. Relative Humidity Wind Chill (°F) Heat Index (°F) altimeter (in) sea level (mb) 1 hr 3 hr 6 hr
6 hour
Temperature (ºF) Pressure Precipitation (in)